Wind_Speed
12 13 13 13 13 14 14 14 14 14 14 14 14 14 14 14 14 14 15 15 15 16 17 15 11 9 9 7 7 9 9 10 10 10 9 10 10 9 10 10 11 9 6 4 2 4 5 7 9 10 7 4 3 3 4 3 2 1 2 3 4 5 5 2 2 1 1 1 3 5 5 4 3 3 2 2 3 5 4 6 5 6 6 4 9 14 22 26
12 12 13 13 14 14 14 14 14 14 14 14 14 14 14 14 13 13 14 15 15 16 17 16 12 10 10 8 7 7 8 9 12 13 15 16 14 13 13 13 13 10 6 3 3 6 6 6 8 9 5 2 4 3 3 3 2 3 3 3 5 5 4 1 2 3 1 2 1 4 6 5 4 5 4 1 5 6 8 9 7 9 7 7 10 16 23 25
12 12 13 13 14 14 15 15 15 15 15 15 14 14 14 14 14 13 14 14 15 15 16 17 12 9 10 8 6 6 6 7 10 11 15 18 17 17 14 12 11 9 7 5 4 6 7 7 6 5 5 3 3 4 3 2 2 4 3 3 6 4 4 3 2 1 1 3 3 3 4 5 5 3 4 3 6 7 10 9 8 11 11 9 10 16 22 22
12 13 13 14 14 15 15 15 15 15 15 15 15 15 15 15 15 14 14 14 14 15 15 17 14 9 8 8 6 4 3 5 5 3 9 15 17 17 14 10 9 8 8 6 5 6 8 10 8 5 4 4 4 4 3 3 2 3 4 5 7 3 4 5 3 3 3 4 3 6 2 3 5 3 4 4 6 8 10 10 11 13 14 12 11 15 20 19
12 13 14 14 15 15 16 16 16 16 16 16 15 15 15 15 15 15 15 15 14 14 15 16 14 9 7 6 4 2 1 2 1 2 4 11 14 15 12 10 8 7 8 5 5 5 7 9 6 4 3 4 5 4 4 6 4 2 5 7 9 7 5 3 4 4 4 3 2 5 5 4 4 4 6 7 8 9 7 7 9 10 12 13 14 15 17 16
12 13 14 15 15 16 16 17 17 17 17 16 16 15 15 15 15 15 15 15 15 15 15 15 13 9 6 4 1 1 1 2 1 2 2 7 11 12 10 9 7 6 7 5 5 5 5 6 5 3 3 4 6 6 7 7 6 3 6 8 10 10 8 3 1 2 1 1 4 4 4 3 4 6 6 10 14 13 7 4 3 1 2 8 16 15 15 15
13 13 14 15 15 16 16 17 17 18 18 17 17 16 15 15 15 15 15 15 15 15 15 14 11 8 4 2 1 2 3 4 2 1 2 6 10 10 8 7 6 6 6 5 6 5 5 5 5 4 4 5 6 8 6 3 5 4 6 8 10 10 8 6 1 4 3 5 7 4 2 2 8 7 5 12 17 14 11 9 6 1 5 9 13 14 14 16
15 14 14 15 15 16 16 17 17 18 18 18 18 17 16 15 15 15 14 14 15 15 15 13 9 6 2 2 1 2 4 5 5 3 4 8 10 9 7 5 5 6 6 6 7 5 4 5 7 5 5 5 4 5 2 2 4 7 8 9 8 6 6 6 3 5 6 6 5 5 5 7 10 6 8 16 16 12 11 11 9 5 6 8 11 13 14 14
16 16 16 16 16 16 16 16 17 17 18 19 18 18 17 16 16 15 15 14 15 16 15 11 7 5 3 3 2 4 3 4 6 5 5 8 10 9 7 5 5 6 5 7 8 7 4 3 5 2 3 4 6 7 2 1 4 4 6 7 6 6 6 6 7 7 7 5 4 6 10 10 8 6 11 19 18 13 10 10 10 8 7 8 10 12 13 13
19 18 17 17 17 17 17 16 17 17 17 18 18 18 17 16 16 16 15 15 15 16 14 10 6 4 4 3 3 3 3 3 4 5 6 8 9 8 8 7 6 7 6 7 8 8 4 2 2 2 3 4 6 7 4 3 2 2 5 7 8 10 10 8 10 10 8 6 8 9 11 10 6 5 10 16 12 11 12 12 12 10 9 10 10 10 12 13
21 21 20 19 19 18 18 17 18 18 18 18 18 18 17 16 16 16 15 15 16 16 12 7 5 4 4 3 4 4 4 4 4 4 5 7 9 9 9 9 8 9 8 8 10 9 6 4 1 2 1 1 4 6 4 1 3 4 5 8 10 11 12 12 13 12 7 6 9 10 9 9 5 6 14 16 7 5 10 12 12 12 12 11 11 11 10 11
22 22 22 22 22 21 20 19 19 19 20 19 19 18 17 16 15 16 16 15 15 14 9 5 3 5 4 4 6 8 7 5 4 5 6 7 8 9 9 9 9 10 8 7 7 8 6 3 0 3 3 1 4 5 2 2 4 4 3 7 12 11 12 15 14 12 9 5 7 6 5 9 9 13 19 18 10 6 8 10 10 12 12 11 11 11 9 11
22 22 23 24 24 23 22 21 20 21 21 21 22 20 19 16 15 15 15 15 15 11 7 4 4 5 3 3 7 13 12 9 6 5 6 6 6 8 8 8 9 10 9 6 4 4 6 4 3 5 4 3 4 2 2 1 2 5 3 5 9 9 10 13 13 12 10 5 8 8 3 8 11 17 19 17 12 10 10 10 10 9 10 10 9 10 11 12
21 22 24 26 26 25 24 22 22 22 22 23 23 23 21 18 15 15 14 15 13 9 6 3 4 4 3 4 6 11 12 10 6 5 6 6 5 4 5 6 6 8 9 7 5 4 6 5 2 4 2 2 3 3 4 4 3 4 5 5 5 4 7 9 6 9 9 4 9 8 5 9 9 12 16 16 12 10 11 12 11 10 9 9 9 11 12 12
22 24 25 27 27 25 24 23 22 23 23 24 24 24 23 19 16 14 14 13 11 8 5 4 7 4 2 5 6 6 8 7 6 7 7 7 6 3 4 5 4 5 5 5 5 4 5 4 2 2 1 0 1 2 4 5 4 3 2 4 5 4 7 8 2 12 11 4 8 9 4 9 10 13 12 11 10 11 11 11 10 11 11 11 11 12 12 11
22 25 26 28 27 25 24 24 23 23 24 24 25 25 22 19 16 15 14 12 9 7 5 4 8 7 3 3 3 3 5 5 7 10 9 9 8 4 6 5 3 3 2 3 3 3 4 3 1 1 1 1 2 4 4 5 5 4 4 6 6 5 8 6 2 9 10 5 7 10 6 7 8 10 7 6 10 11 10 11 10 12 11 12 12 11 11 10
23 25 26 28 26 24 24 24 22 22 23 24 25 24 20 17 16 15 12 8 6 7 7 2 5 7 2 2 3 3 4 6 9 10 9 12 10 6 7 5 3 5 3 3 2 3 4 3 1 1 2 4 4 4 3 5 6 4 6 6 7 8 8 6 2 5 7 7 7 12 10 12 10 8 6 4 9 10 10 11 12 11 10 11 11 11 10 10
23 24 25 26 24 24 24 23 21 22 23 24 23 21 19 16 14 12 6 6 4 4 5 3 1 4 3 5 5 3 6 7 9 9 9 12 10 8 7 3 3 5 4 3 3 4 3 3 3 1 3 4 5 5 5 7 7 5 6 5 6 7 7 9 5 2 8 7 7 9 10 16 16 12 11 11 10 10 11 11 12 13 13 14 13 12 11 10
21 22 25 24 22 22 23 22 21 21 22 23 21 17 15 11 6 6 6 7 5 4 4 4 6 3 2 5 5 5 6 8 8 7 8 10 9 8 6 3 3 4 3 2 4 6 4 2 3 3 6 7 8 9 10 11 10 10 10 7 7 6 8 13 10 4 10 7 8 12 12 16 16 13 12 13 13 13 12 11 12 13 13 14 14 11 10 12
19 21 23 22 20 22 23 21 20 20 21 21 20 14 9 5 3 3 5 7 8 8 7 5 11 7 2 4 7 7 7 8 6 6 10 11 10 7 5 4 2 2 4 4 5 4 4 4 5 8 11 10 10 12 14 14 13 12 11 9 7 7 10 14 12 5 10 7 9 14 13 16 16 14 13 12 12 13 13 13 13 13 13 14 14 12 11 13
18 19 20 19 19 21 22 21 20 20 17 15 15 10 3 2 4 2 0 6 13 15 13 8 11 10 5 5 10 11 6 4 5 7 13 13 11 8 5 6 4 3 7 7 4 1 1 6 10 15 16 11 10 12 12 12 12 12 9 7 7 8 11 14 11 5 8 6 8 11 11 14 16 13 12 12 12 14 14 15 16 16 16 15 14 14 13 8
17 17 18 19 18 20 21 21 21 18 14 11 9 6 2 3 2 1 1 6 10 15 15 11 9 9 5 5 11 11 4 3 6 6 14 13 9 7 6 7 7 7 7 6 4 2 4 10 14 16 13 10 11 11 9 9 9 9 7 5 7 9 10 12 9 2 4 3 6 9 10 12 15 14 13 14 14 14 15 16 17 16 16 15 13 14 11 4
16 16 17 17 18 19 20 22 21 13 10 9 7 6 4 3 1 2 1 5 8 11 12 11 12 11 9 7 9 11 5 9 9 8 18 17 8 6 6 8 10 8 7 8 9 7 8 10 14 16 13 12 14 10 7 7 7 7 6 6 8 10 8 8 5 2 4 5 6 9 9 10 13 13 15 17 18 16 16 17 17 15 14 15 15 13 9 7
15 14 15 16 17 18 19 23 16 8 8 8 6 6 4 0 1 3 1 4 7 9 11 14 12 11 13 9 10 14 10 10 8 7 21 20 7 4 6 9 10 8 8 12 14 15 15 8 6 10 12 13 13 9 7 5 7 8 7 8 10 12 11 10 7 2 3 6 5 6 9 9 10 12 14 13 14 15 13 14 14 14 14 15 15 13 9 9
14 13 13 14 15 17 20 17 9 10 12 7 4 6 4 1 0 3 2 4 6 4 5 9 6 7 12 8 12 12 5 7 6 4 18 19 8 6 4 6 7 9 11 14 14 15 16 8 5 7 7 8 10 8 7 6 8 9 7 12 16 15 13 13 9 5 3 5 2 2 7 9 7 10 12 6 7 10 9 11 13 14 15 13 12 12 9 8
13 12 12 12 13 17 17 8 8 16 13 4 5 8 5 3 2 2 2 3 7 1 1 4 4 6 9 7 8 7 2 5 1 5 14 13 6 4 3 4 4 8 9 9 9 8 7 6 7 9 8 7 7 6 6 8 7 9 4 7 12 12 11 10 7 2 1 5 2 4 3 10 8 7 9 6 6 8 8 10 13 13 13 12 10 11 8 8
14 12 11 10 11 13 10 5 12 16 6 3 8 9 8 5 5 5 1 4 7 3 4 2 1 2 4 3 5 6 0 2 4 5 6 5 3 2 3 7 5 6 4 1 5 4 3 6 5 7 8 7 7 8 7 9 7 6 2 1 2 4 6 5 3 4 3 4 4 4 4 9 14 6 8 10 8 8 9 10 12 13 13 13 13 11 8 10
16 14 12 10 10 9 7 9 13 10 4 8 11 10 9 6 6 4 1 5 5 4 4 1 1 2 2 3 2 3 1 1 3 1 2 1 2 2 5 11 8 7 5 4 7 3 3 7 7 9 8 6 7 7 6 10 8 5 1 1 3 1 1 1 1 4 2 4 4 5 7 5 15 6 7 10 10 10 12 13 13 14 14 14 14 12 9 10
18 16 14 12 12 10 9 10 9 7 10 12 11 10 9 5 4 1 1 5 2 3 1 1 2 1 2 2 4 2 1 2 0 1 2 0 2 0 4 7 7 7 5 7 11 6 1 4 5 6 7 7 6 1 1 5 7 4 2 3 5 2 1 2 2 2 2 4 6 6 8 4 15 8 5 7 7 9 12 12 13 13 14 13 13 13 9 9
20 18 16 14 12 10 7 6 8 10 12 11 9 9 7 4 1 1 5 6 1 2 1 1 1 3 7 4 3 5 3 0 2 1 1 2 1 1 2 2 3 5 5 6 10 8 2 2 1 2 4 4 4 4 2 1 2 3 3 2 2 1 1 1 2 2 1 9 7 10 13 9 10 5 6 6 6 9 9 8 10 10 12 13 11 11 9 9
23 21 19 18 16 11 5 4 8 7 7 7 7 6 4 3 1 3 8 3 2 1 3 2 2 7 10 8 5 5 5 3 4 5 3 2 2 1 2 1 1 2 4 5 8 8 5 1 1 1 1 4 6 3 1 2 1 3 4 2 1 3 2 2 1 3 2 10 5 11 15 13 11 5 3 4 7 10 10 8 9 11 12 13 11 9 9 9
26 24 23 24 23 18 10 7 8 5 4 5 5 3 2 1 3 9 7 2 2 3 3 3 5 6 8 9 5 5 6 4 5 7 5 4 4 5 6 6 4 2 4 5 5 5 6 8 7 1 2 5 6 2 2 4 1 3 5 4 1 3 2 1 2 2 5 10 5 10 13 11 14 10 5 7 7 9 10 9 11 12 11 12 11 9 8 8
29 28 27 29 28 25 19 14 11 6 4 2 5 3 1 2 7 9 4 0 1 1 2 2 6 6 6 6 4 5 5 3 6 7 4 6 5 6 8 8 5 3 4 4 3 2 3 6 7 4 3 6 9 6 4 2 4 7 6 6 5 4 3 4 4 3 6 9 7 7 10 6 9 7 10 15 14 13 11 9 10 10 9 11 10 7 7 8
32 31 31 32 32 30 25 20 17 11 4 9 6 3 2 4 8 4 1 4 4 2 2 3 4 6 6 5 3 6 5 3 7 7 5 6 4 5 7 9 10 6 2 1 3 3 4 7 6 10 3 8 13 13 11 4 5 9 6 5 6 5 3 4 5 7 7 6 5 3 6 4 4 2 10 15 15 14 12 10 10 9 9 10 5 6 7 7
34 34 33 32 31 31 27 23 21 15 9 10 4 3 4 7 7 3 3 5 6 4 1 2 3 5 6 5 3 6 7 5 7 8 5 7 6 5 6 8 13 10 2 2 3 3 6 10 8 10 3 10 15 14 10 5 1 6 4 3 6 5 4 5 7 9 5 5 5 4 4 6 6 7 10 11 10 11 9 9 10 9 10 11 5 6 7 7
30 31 29 28 29 29 30 27 24 20 14 8 4 4 7 7 5 3 2 3 5 4 1 1 2 4 5 4 3 6 5 3 5 6 4 7 7 7 6 5 11 14 9 6 4 3 5 7 4 6 1 5 9 6 7 5 2 3 4 5 6 3 5 6 8 7 3 5 9 6 6 7 8 12 12 13 14 13 11 11 10 10 13 14 9 6 7 7
21 21 19 25 29 29 32 32 28 24 13 6 5 6 7 7 8 7 4 4 5 6 2 3 3 4 6 4 4 7 5 2 5 6 3 5 6 8 9 6 9 16 16 11 4 4 6 6 3 6 2 2 2 4 2 3 3 6 3 5 2 3 1 3 2 4 3 7 9 8 10 10 10 10 5 4 10 12 12 12 12 13 16 14 9 8 8 8
12 11 12 24 32 30 32 35 31 22 8 4 8 10 7 6 7 7 6 6 7 7 6 7 5 6 7 7 5 7 8 5 6 6 4 4 5 8 11 7 8 16 19 14 6 4 4 6 5 2 1 2 3 3 3 3 1 5 2 2 3 1 1 3 2 3 5 7 7 9 11 11 12 12 8 5 7 10 11 12 12 14 15 10 8 9 8 7
6 5 6 15 24 28 33 35 26 13 4 6 9 9 6 7 7 5 6 7 5 6 8 9 7 6 8 9 7 4 8 8 7 5 5 5 5 7 11 8 8 13 17 15 9 5 2 4 6 2 3 2 2 2 4 3 1 2 4 4 1 2 3 3 3 3 5 6 7 10 10 12 12 8 7 10 8 10 9 8 9 11 11 8 7 8 6 7
2 4 3 2 11 26 33 28 15 6 4 5 7 7 5 5 6 6 9 9 5 4 5 6 5 5 6 7 9 7 5 7 7 5 5 5 6 6 8 9 7 9 14 14 11 6 2 5 7 1 3 1 2 4 7 8 6 3 1 2 3 2 1 1 2 3 5 6 6 7 8 14 10 2 1 5 4 9 10 8 9 9 8 8 7 7 6 7
2 4 2 6 17 28 27 14 5 4 4 3 5 7 6 4 4 5 6 5 3 3 3 3 3 4 6 6 8 9 5 5 5 5 5 5 7 6 4 8 7 6 6 6 6 6 3 5 7 2 1 5 7 7 10 12 9 7 7 8 8 7 4 3 6 6 4 4 6 7 8 15 10 4 5 5 3 3 5 5 5 5 7 8 7 8 8 8
4 4 2 14 26 29 19 5 2 2 2 3 4 5 3 3 5 7 7 5 3 3 3 3 3 5 7 8 8 9 7 6 7 6 6 6 8 6 2 5 7 5 6 5 8 10 5 3 6 7 6 7 8 4 6 8 7 3 5 7 7 7 7 8 9 7 4 4 6 7 10 16 13 2 6 9 6 5 4 2 2 4 6 7 7 8 8 7
4 3 4 18 31 28 12 3 2 1 4 3 4 5 4 3 4 5 6 6 5 4 3 3 5 8 9 9 8 9 8 7 8 11 12 12 10 8 8 5 4 1 3 2 3 5 3 3 5 8 5 6 9 5 2 3 2 3 4 5 7 7 7 9 7 5 6 5 5 9 11 14 13 5 4 11 10 7 7 6 6 8 7 7 8 8 8 9
3 2 3 18 34 26 8 4 4 5 7 6 7 8 7 5 6 8 8 8 6 4 4 5 7 9 9 7 7 9 9 7 7 10 12 12 9 7 11 10 9 5 2 2 3 2 2 2 5 6 5 5 8 9 5 3 1 2 5 6 7 7 7 7 4 4 7 8 10 13 11 10 12 8 5 9 10 8 8 7 7 7 7 7 8 8 9 9
3 2 1 12 25 19 6 6 7 7 9 10 13 14 11 7 7 13 16 13 10 7 5 6 7 8 7 6 7 10 11 9 6 5 6 8 8 8 8 6 7 3 4 6 5 3 3 3 2 4 6 7 7 9 7 3 0 2 4 6 8 9 9 7 5 6 8 10 14 14 11 11 15 16 15 17 15 13 13 12 9 8 8 9 8 8 9 9
3 3 1 4 11 9 5 3 5 7 9 10 10 11 14 13 9 12 16 14 12 12 10 7 6 5 6 9 10 12 13 12 9 6 5 6 7 7 7 4 3 3 7 9 7 3 1 2 4 6 8 9 10 11 10 8 6 5 6 9 9 9 10 8 6 7 9 11 13 13 13 15 16 19 23 24 21 18 16 15 13 11 11 10 9 9 10 9
3 3 3 2 3 6 7 5 6 6 8 10 7 5 13 17 11 9 11 11 11 12 10 8 8 8 9 11 12 11 12 13 12 11 10 10 10 9 10 10 9 11 13 7 1 1 2 5 10 14 16 16 16 18 18 16 16 16 15 14 12 10 11 11 10 12 13 13 13 12 14 19 18 19 25 28 24 18 14 15 17 15 12 10 8 9 10 10
4 3 2 1 1 4 6 7 9 8 8 10 8 7 13 17 13 10 9 9 11 10 6 7 11 16 17 16 13 9 10 11 11 12 13 12 12 12 12 12 14 16 15 7 4 4 4 7 12 15 18 20 21 22 23 21 21 22 21 20 19 16 14 14 17 21 18 15 14 13 19 24 22 20 24 26 22 18 17 19 21 18 16 15 12 10 10 11
3 3 3 4 3 3 4 5 6 8 11 10 7 7 12 16 17 14 9 7 8 9 10 11 13 16 19 20 16 12 11 12 12 12 12 13 14 12 9 10 12 14 14 9 5 5 4 6 11 15 17 21 23 24 26 26 24 24 22 20 18 16 15 17 20 21 19 18 18 20 26 26 21 21 24 22 18 17 19 22 22 19 19 20 17 12 10 12
3 2 3 4 4 4 5 5 4 6 9 9 6 6 9 13 16 14 9 9 9 8 11 17 19 18 18 19 19 17 16 17 18 16 13 13 13 10 7 9 9 7 9 9 6 6 7 8 12 14 13 16 20 22 24 25 24 24 23 18 15 15 18 21 21 18 16 18 22 24 25 21 19 22 23 19 16 17 21 25 23 20 19 21 20 14 10 12
4 4 3 3 4 5 6 5 4 5 6 6 6 7 9 12 13 13 12 12 14 12 11 16 19 17 17 19 21 22 21 21 23 23 20 18 14 11 8 9 11 9 7 7 6 8 9 9 9 9 10 12 15 19 23 23 22 22 20 18 18 20 21 21 19 17 18 20 24 23 19 16 18 19 16 15 18 21 24 26 23 20 20 21 21 15 11 12
5 4 2 2 3 4 6 5 5 7 5 4 7 9 12 14 13 13 12 10 13 17 17 18 17 13 14 19 20 19 18 17 19 19 19 18 17 16 13 10 12 11 7 7 7 6 8 8 7 8 9 9 12 18 20 18 16 15 15 20 27 28 25 21 20 22 24 22 19 17 17 17 17 15 13 17 21 23 24 23 21 20 20 21 20 16 12 14
Wind_Direction
8 8 7 7 7 8 8 8 9 11 12 13 13 13 13 12 10 6 3 1 0 358 355 351 343 335 331 309 280 269 274 283 291 282 256 260 266 259 261 260 272 277 271 281 195 199 212 199 216 218 205 171 194 215 154 171 185 181 205 224 242 245 251 268 301 355 112 120 138 180 188 213 218 167 152 90 238 247 232 234 216 212 223 149 129 140 146 152
358 358 357 356 357 358 359 359 0 2 4 5 6 7 7 7 5 3 359 357 355 354 353 352 347 337 335 323 298 277 274 278 276 268 257 261 263 259 265 265 266 268 268 268 214 226 230 220 213 196 193 198 191 172 144 165 162 202 238 249 241 255 255 222 332 358 44 334 310 171 184 221 221 170 144 175 227 217 232 242 221 224 213 138 139 149 150 155
349 349 349 347 347 349 350 350 352 353 355 357 360 0 0 359 360 360 357 354 351 350 349 349 347 338 335 327 315 288 278 287 275 262 252 247 244 246 256 259 252 253 254 250 256 269 277 294 287 217 202 234 206 169 175 174 157 212 232 261 252 276 311 291 318 334 359 357 308 257 184 200 232 180 125 208 245 225 227 231 213 225 219 178 163 157 156 162
342 341 341 340 340 340 341 342 343 344 346 349 351 354 355 354 353 355 354 352 348 346 345 345 344 339 337 333 322 286 283 296 276 249 231 224 222 227 235 242 237 239 246 251 274 282 290 297 296 271 234 247 233 189 187 178 163 217 197 234 263 291 321 315 2 16 20 39 309 288 268 203 234 219 154 191 250 244 233 228 217 220 218 195 171 167 167 171
335 335 335 334 333 334 335 335 335 336 338 341 343 346 349 349 348 349 350 349 346 343 341 340 337 333 338 336 318 280 310 286 268 1 236 210 206 208 211 222 222 229 236 240 269 271 276 273 266 264 245 259 254 209 216 203 178 252 234 244 266 271 276 307 47 45 38 49 303 282 270 246 223 221 199 198 228 239 229 226 226 224 223 198 175 174 174 178
329 330 330 329 328 329 329 328 329 329 331 333 336 339 343 344 344 344 346 346 343 341 338 335 330 326 335 344 338 181 256 276 58 41 227 200 201 198 194 207 213 219 222 227 263 262 261 257 244 243 235 251 255 243 240 203 166 234 252 248 261 268 270 269 92 100 84 213 235 248 271 271 237 240 227 219 231 239 239 241 247 252 236 176 170 172 177 187
326 326 325 325 324 325 325 324 324 323 325 327 329 333 337 339 338 339 342 342 340 338 336 331 321 316 331 49 104 181 232 274 316 32 176 182 192 195 192 198 206 203 196 212 239 244 251 255 248 245 241 248 254 258 260 165 155 226 258 260 270 279 275 274 237 146 187 230 237 258 338 273 235 239 242 239 240 240 245 257 256 166 96 124 156 175 185 191
325 324 323 322 321 322 322 320 320 320 320 321 325 328 332 335 334 335 338 339 337 336 335 329 315 305 304 138 204 254 234 248 254 225 182 184 187 190 193 191 200 191 186 216 235 261 279 266 260 263 258 260 297 306 333 105 195 226 251 258 265 276 271 271 247 179 204 231 242 265 271 245 238 251 262 254 252 244 237 245 244 206 150 144 164 183 192 197
324 322 322 320 320 320 318 317 317 316 317 318 320 323 327 331 331 332 335 336 336 336 334 325 308 286 241 195 263 276 242 232 229 221 204 198 194 191 191 186 193 187 197 223 236 259 266 272 274 300 314 292 306 308 314 215 230 225 257 276 285 287 282 264 248 219 214 222 211 237 250 247 247 268 265 254 253 255 246 239 235 212 191 189 185 188 194 201
325 324 323 322 321 318 317 316 314 312 313 313 315 318 322 326 327 328 331 334 335 336 332 318 296 265 223 209 252 262 243 242 232 228 225 214 203 194 193 194 188 192 221 223 218 236 240 303 309 58 11 304 291 287 249 211 266 313 298 301 297 288 285 267 258 243 222 221 205 215 244 252 244 238 254 252 246 243 240 239 235 222 216 211 206 202 198 203
328 327 326 326 324 320 318 316 315 312 310 309 310 312 315 320 322 323 326 330 333 336 332 318 283 235 219 226 245 248 234 232 232 221 219 215 205 198 201 205 196 196 225 230 219 232 258 307 335 95 38 301 313 290 238 230 340 328 324 309 285 276 272 254 252 247 225 223 206 204 249 264 241 219 244 250 243 221 224 231 230 224 227 218 214 216 205 209
327 329 328 328 326 323 320 318 318 314 311 310 307 306 309 312 315 317 320 324 330 333 330 316 259 213 221 250 240 237 235 222 226 223 213 212 206 204 208 210 206 203 221 248 231 222 240 277 234 234 252 283 314 292 257 3 340 308 334 303 283 278 269 253 245 231 211 211 180 166 265 264 232 226 243 250 242 227 228 232 227 221 226 222 216 219 216 217
326 328 328 327 325 324 321 320 320 316 314 311 308 307 306 307 308 310 313 316 323 326 318 291 236 207 218 264 235 229 234 230 231 234 222 217 208 208 215 215 216 215 223 255 261 205 214 217 200 242 271 281 282 302 296 293 272 273 261 260 280 291 271 254 244 214 194 182 147 142 256 253 234 230 236 247 239 220 226 232 230 225 224 223 219 220 223 219
324 325 326 325 324 323 322 321 320 318 315 312 309 307 307 308 305 301 303 308 312 309 296 256 205 186 206 257 246 230 230 231 228 226 220 204 187 203 216 216 220 222 225 241 253 227 209 196 204 258 279 243 263 351 314 268 221 261 272 253 257 278 272 270 247 181 172 166 150 152 248 253 256 247 233 238 228 201 215 228 226 226 224 224 223 225 228 220
321 321 323 323 322 322 322 322 322 320 316 314 311 309 311 310 302 296 294 293 293 283 264 215 191 174 270 259 248 237 228 229 214 207 211 185 176 201 189 188 204 208 219 231 232 218 191 172 187 255 260 159 292 309 290 272 244 219 252 266 233 224 263 280 207 167 171 177 169 161 240 255 256 262 246 227 207 190 210 226 223 224 225 226 228 229 230 226
318 318 320 321 321 324 323 320 322 320 317 316 314 315 316 311 299 290 286 277 269 247 208 189 194 193 293 263 212 232 218 215 203 203 214 191 181 179 159 163 171 166 193 210 205 185 167 175 216 232 227 182 193 223 254 277 265 211 194 246 243 235 264 271 207 188 173 132 187 195 229 259 239 247 248 177 180 189 212 229 225 225 227 228 234 234 227 227
312 314 317 319 322 327 325 322 322 319 319 319 318 320 319 310 291 281 279 256 233 204 190 207 193 188 245 238 220 242 184 184 197 203 214 197 183 167 157 165 169 157 160 170 173 175 170 178 160 114 223 220 212 207 233 257 257 234 209 235 244 240 257 261 274 237 190 142 197 212 229 254 248 248 262 203 189 194 211 232 239 240 243 242 243 240 231 222
307 311 315 318 325 331 327 327 326 321 322 321 320 323 318 308 286 271 247 194 169 158 203 269 213 197 231 221 212 158 141 165 185 193 204 195 186 180 178 186 167 157 159 182 195 180 176 187 179 228 245 219 211 198 205 227 235 247 242 255 260 249 252 255 274 222 190 187 215 218 230 249 254 255 261 258 243 228 226 234 247 251 253 253 251 246 241 228
307 311 315 318 330 334 330 332 330 326 327 322 324 326 314 307 284 237 191 175 152 155 223 212 186 206 216 188 174 130 132 155 168 184 191 184 181 183 194 202 166 177 191 194 199 179 168 190 191 228 243 221 209 204 215 230 240 258 266 271 269 272 267 261 274 203 181 196 223 223 233 247 254 251 248 253 252 250 245 239 244 250 253 254 252 247 240 237
307 312 315 320 331 335 333 333 330 330 330 327 334 336 313 302 286 227 186 204 221 241 272 212 189 215 232 144 138 136 142 157 168 180 178 174 167 163 197 213 157 206 227 199 187 172 164 191 202 223 234 226 214 215 224 234 243 255 265 269 265 269 270 270 279 230 182 191 225 227 236 248 256 255 248 250 252 255 255 250 249 250 254 257 256 253 242 241
310 316 320 322 327 332 333 335 331 330 331 332 335 328 325 349 297 299 228 239 237 244 266 246 204 227 240 138 146 154 140 178 202 176 174 175 161 154 185 193 169 212 220 211 203 64 181 210 219 228 237 240 234 234 236 239 244 251 257 267 272 264 265 273 279 233 181 196 239 241 248 254 258 261 257 252 250 251 251 252 255 253 255 260 260 258 249 239
313 320 327 324 323 327 332 336 331 329 335 338 323 300 346 9 292 305 322 268 247 235 248 251 233 246 241 164 166 161 121 222 223 178 171 174 172 182 186 174 192 215 194 194 221 239 226 230 232 235 245 253 250 249 250 255 257 259 266 273 274 268 272 278 273 202 157 199 253 256 260 262 263 263 260 254 248 247 245 246 251 253 257 261 259 259 254 211
311 319 327 328 326 324 330 335 332 334 340 337 323 312 344 2 43 76 234 270 270 243 238 235 231 237 230 216 181 169 190 223 226 199 174 173 181 199 194 182 208 225 186 186 209 222 232 231 231 237 247 251 251 243 232 258 264 246 250 260 262 261 268 276 264 166 161 206 245 266 270 266 267 266 258 254 250 248 247 246 250 252 253 256 255 258 246 194
309 316 322 332 332 329 334 335 338 358 338 320 318 319 330 345 72 46 306 265 261 229 219 221 222 225 223 221 182 185 217 218 217 206 176 173 167 171 207 204 210 228 213 207 212 228 242 230 202 226 235 236 242 234 206 231 260 237 219 230 251 256 251 256 267 270 212 227 243 280 286 266 249 250 253 250 245 246 245 245 252 253 251 253 255 255 232 185
307 310 315 328 332 335 339 336 353 4 333 315 318 320 317 233 148 34 1 272 255 231 224 220 213 221 213 194 174 179 225 220 215 191 172 176 165 149 204 206 208 229 223 222 225 238 249 231 175 208 219 215 224 231 197 194 257 259 210 216 240 254 257 262 286 338 331 278 258 28 311 277 211 216 247 249 222 234 234 232 242 250 254 253 253 253 227 178
298 302 309 318 325 337 343 342 354 343 323 306 328 321 309 270 272 345 11 273 260 235 100 194 176 197 189 164 160 138 13 246 217 105 161 181 183 157 209 186 202 237 220 225 238 243 244 202 186 205 212 211 221 245 205 184 251 271 224 218 241 256 264 266 285 328 255 262 252 92 349 288 260 216 240 248 211 221 224 225 233 241 252 253 250 248 216 175
285 290 297 302 314 335 346 331 332 335 323 326 339 326 308 293 288 294 310 288 271 160 122 220 227 176 162 140 153 132 274 251 78 88 154 180 187 150 227 198 191 228 204 216 251 236 178 159 169 199 213 218 222 246 217 185 230 261 228 218 233 249 261 255 257 238 232 291 278 172 140 279 282 247 206 221 217 227 232 228 234 237 244 250 252 244 199 177
275 278 282 284 291 313 322 305 316 331 316 316 325 318 313 306 289 295 289 279 274 119 118 222 29 54 62 345 259 151 265 275 105 51 31 62 182 135 225 221 217 216 176 179 233 258 129 171 193 195 200 218 219 236 203 177 212 244 190 111 102 121 273 105 215 246 285 332 281 198 144 249 281 272 174 200 206 225 235 228 233 235 238 243 247 245 207 182
270 270 270 269 272 283 297 296 292 291 295 306 311 310 321 317 289 344 261 259 242 102 108 142 102 58 85 358 286 240 347 8 89 301 31 220 222 112 230 233 250 249 224 212 232 265 67 187 218 187 185 219 212 198 98 177 211 217 146 80 79 86 38 86 224 262 347 291 247 191 151 216 279 278 155 181 200 217 230 228 229 231 235 238 239 243 219 181
264 263 261 256 257 262 274 272 258 274 299 306 304 313 325 304 285 115 238 255 325 68 83 104 128 143 133 134 236 238 239 35 82 120 174 207 190 343 294 281 286 273 276 262 258 266 238 100 329 215 195 203 140 86 23 128 165 154 128 75 51 308 22 86 234 99 353 270 241 190 180 193 272 286 137 171 200 200 210 222 230 232 239 242 237 236 211 177
262 258 252 245 244 240 232 221 225 253 306 309 312 330 314 280 108 213 235 249 359 167 139 158 162 138 157 180 194 199 207 206 144 153 186 194 156 191 256 241 99 326 300 282 274 265 246 196 206 275 220 128 105 87 353 27 97 119 119 116 3 307 12 26 301 98 228 267 224 177 185 192 233 254 144 207 205 193 202 202 214 226 235 244 243 229 201 178
263 259 250 244 243 235 226 211 192 203 297 324 7 6 283 239 208 232 237 43 25 205 153 169 177 160 187 208 213 174 180 207 174 174 184 164 174 195 207 206 158 138 262 243 246 252 249 234 202 218 309 165 148 124 15 354 310 145 132 134 141 280 309 312 248 146 225 256 224 178 182 201 238 246 232 249 227 201 210 197 204 217 222 239 245 225 193 171
265 262 253 247 242 232 227 221 205 224 277 72 65 24 342 224 232 234 226 108 245 203 63 122 172 181 191 207 223 176 186 222 168 182 195 162 193 218 215 226 209 225 253 217 231 229 264 263 186 165 289 189 168 180 207 265 197 177 161 150 166 207 246 246 238 242 243 254 256 199 179 210 266 249 211 231 236 226 223 211 213 215 216 239 243 209 180 170
268 263 255 250 242 234 228 218 216 228 177 122 106 64 106 224 248 261 181 213 239 248 14 46 153 188 205 215 193 153 186 232 160 174 198 167 198 227 212 225 224 239 283 232 272 201 240 290 185 168 213 179 182 207 208 160 162 195 178 160 192 194 212 239 230 244 259 276 278 190 167 214 276 232 194 211 230 232 228 221 220 218 227 246 237 160 166 179
270 262 255 248 237 231 223 213 215 213 162 130 114 114 167 226 252 277 258 240 264 268 240 55 153 194 227 236 205 176 205 225 164 167 197 190 203 215 202 206 204 207 186 206 258 179 227 271 199 169 172 167 185 216 203 124 129 217 151 149 231 204 188 246 253 249 277 315 275 212 199 240 267 277 242 225 239 239 228 223 217 218 236 244 219 164 179 188
267 261 252 238 230 225 217 213 209 193 165 139 125 164 203 227 219 209 252 239 259 282 276 250 205 200 238 231 205 213 220 235 180 169 202 215 223 226 210 192 192 195 189 190 225 190 229 277 179 154 333 171 187 224 191 164 193 186 140 191 224 172 166 223 265 273 298 285 271 258 254 274 300 288 252 225 238 243 234 229 217 212 229 236 223 199 201 196
263 258 244 233 231 222 214 213 198 177 163 150 170 198 212 227 225 224 270 307 303 321 316 242 215 198 235 239 211 204 188 201 191 174 188 207 222 222 212 212 187 191 202 204 222 228 224 271 222 170 248 263 279 319 272 227 158 131 177 213 186 35 104 174 264 298 271 257 271 277 273 285 291 282 265 193 227 236 230 225 215 213 223 229 227 220 213 197
270 252 246 244 237 222 211 206 187 166 151 165 206 222 215 213 217 217 251 285 298 298 271 251 228 205 235 255 242 195 174 189 187 176 200 207 217 200 191 213 195 190 207 209 223 261 218 258 268 157 15 332 356 335 290 293 115 132 220 238 107 82 229 157 182 234 245 251 269 280 283 279 259 261 299 297 224 216 220 218 213 219 225 228 233 233 213 181
288 236 264 261 241 221 206 194 176 154 150 183 210 227 220 226 233 234 262 276 285 275 259 260 253 235 248 264 274 225 180 196 191 181 204 204 222 197 173 194 204 194 203 197 205 243 182 228 259 14 12 348 21 262 207 226 303 53 4 352 84 163 174 176 192 200 227 243 266 281 285 276 260 248 277 273 224 198 209 215 216 224 231 235 238 235 206 180
283 228 285 308 216 205 192 178 161 150 183 192 217 228 233 256 258 244 243 244 252 264 258 265 276 277 280 294 306 297 220 212 211 208 215 201 229 228 178 184 199 198 203 197 202 222 166 220 239 310 359 246 198 209 188 190 201 173 206 258 224 199 143 226 246 214 216 227 248 261 266 271 269 164 215 285 212 193 199 202 217 229 238 247 247 239 216 203
202 248 265 148 177 179 168 158 158 179 199 232 242 239 247 281 294 274 260 253 258 287 309 303 292 294 297 304 310 308 294 269 252 232 227 215 235 256 181 182 195 179 182 192 205 209 185 213 224 219 252 233 228 213 201 208 204 183 198 208 208 204 188 243 249 228 216 224 234 240 254 263 261 91 47 4 56 194 209 196 218 232 239 250 251 240 224 206
227 260 176 166 173 164 150 162 221 168 220 236 239 257 265 278 279 274 280 288 273 276 317 317 278 272 276 269 274 289 294 299 298 282 278 272 258 271 276 214 214 168 149 182 211 205 181 171 220 230 232 246 256 230 205 231 236 223 219 211 211 205 194 220 235 234 239 225 227 242 250 256 261 346 345 309 314 324 313 294 287 264 240 243 240 240 241 228
230 259 152 172 174 161 148 216 203 172 245 248 287 283 264 260 268 265 260 251 242 238 239 252 252 248 249 246 252 264 261 262 266 263 276 289 285 305 338 329 317 307 189 222 237 208 158 126 214 241 262 291 291 293 355 336 267 249 249 220 215 214 213 228 236 250 255 227 226 248 246 258 275 289 270 275 281 279 268 264 273 276 270 254 241 240 247 245
248 280 148 180 180 170 168 220 200 219 230 243 268 257 251 256 246 250 251 230 213 216 226 233 232 232 235 236 247 254 251 251 245 245 266 276 276 321 351 6 15 356 290 347 1 279 270 224 214 235 255 280 283 271 280 330 348 236 243 229 226 228 230 249 268 265 258 244 244 255 254 262 281 283 252 270 280 271 265 264 259 267 273 261 251 252 249 245
266 254 153 190 191 189 204 212 212 227 216 224 237 235 243 250 222 231 242 239 227 218 228 234 222 228 240 243 253 252 246 246 244 245 265 269 274 298 315 352 26 7 311 354 8 333 309 310 270 237 232 234 242 245 248 257 175 210 233 236 240 234 226 237 255 248 248 244 242 252 264 268 279 289 286 281 281 279 280 282 277 271 268 260 254 253 249 244
269 237 201 187 202 218 240 216 223 229 213 221 232 227 232 239 231 227 232 240 239 227 232 237 214 219 234 234 248 252 244 240 235 232 237 241 258 262 249 276 340 278 289 334 358 353 338 317 284 256 244 240 239 251 269 274 258 248 237 228 226 228 227 230 239 241 248 254 248 249 264 270 274 281 282 279 277 276 277 282 282 275 269 264 251 242 242 241
267 251 224 190 210 228 237 234 229 222 210 212 210 201 225 235 242 229 217 225 231 226 235 239 219 223 229 228 239 244 240 241 236 234 239 236 242 249 245 257 270 268 276 296 24 139 213 232 241 240 241 246 248 254 263 265 260 256 251 242 232 223 220 223 235 240 242 252 254 249 258 265 263 261 266 271 272 273 276 278 279 276 272 265 244 237 244 246
256 257 249 301 262 218 233 241 238 236 223 211 203 207 226 233 232 223 217 225 227 219 225 231 218 222 228 230 234 235 234 242 239 231 236 239 242 251 255 252 250 254 261 256 162 165 217 231 229 231 234 239 243 247 249 252 254 252 249 247 243 235 221 218 232 237 235 243 255 253 252 256 257 256 259 264 270 277 281 279 278 279 279 272 256 243 247 247
286 279 297 330 304 253 277 291 274 258 242 232 229 220 228 236 233 227 220 224 231 215 216 237 232 222 226 228 231 236 231 236 242 231 223 228 231 238 250 252 245 237 232 234 205 174 206 229 219 227 238 236 237 242 243 246 251 253 252 248 245 246 238 230 235 239 240 247 253 253 251 253 258 259 257 261 271 279 281 277 275 275 274 273 269 254 244 244
308 318 320 327 310 289 293 295 287 274 255 246 245 233 235 244 243 242 232 224 238 220 206 230 240 231 229 228 229 236 232 231 243 240 227 227 226 223 232 239 245 230 206 214 218 187 200 218 209 218 241 240 235 239 241 243 247 251 254 254 253 255 252 246 246 247 250 252 250 250 253 256 256 256 259 268 274 274 272 270 271 271 268 270 272 260 239 244
314 338 336 313 302 291 280 267 254 265 257 234 233 243 249 250 249 256 254 238 242 245 232 240 247 243 241 239 237 241 238 233 240 241 238 238 231 218 217 213 217 222 200 196 206 189 196 219 215 217 241 238 228 234 239 241 245 248 254 260 257 250 247 246 247 246 245 250 252 252 253 252 251 255 263 268 264 261 262 264 267 267 265 266 269 264 243 244
320 333 332 291 285 273 273 283 278 272 265 245 249 253 255 260 259 256 261 249 238 244 248 250 255 261 259 253 250 254 256 250 250 252 253 256 253 240 235 226 216 219 207 194 208 197 193 213 216 217 241 240 223 230 237 239 245 244 238 240 243 245 247 249 248 246 243 244 248 250 248 249 254 259 262 260 257 255 254 256 259 263 266 265 265 263 252 244
Height
828 828 827 826 825 825 824 823 823 821 821 820 819 818 817 816 815 814 813 812 812 810 809 808 807 807 806 805 805 804 804 804 803 803 802 799 799 799 799 799 799 800 800 800 801 802 801 802 802 801 802 803 803 802 802 802 802 808 814 819 819 812 804 795 790 789 789 790 792 792 789 792 793 792 790 789 792 792 792 790 788 787 785 787 788 790 791 793
829 828 827 826 825 825 824 823 822 822 821 820 819 819 817 817 816 814 814 812 811 810 809 808 807 806 805 805 804 804 804 803 802 801 799 797 798 798 798 799 799 800 800 801 801 801 801 801 799 800 802 804 803 801 804 802 803 810 811 814 812 803 794 786 785 784 785 788 788 788 788 790 791 789 790 793 794 792 793 790 787 788 786 787 788 789 791 791
828 828 827 826 825 824 824 823 822 822 821 820 819 819 818 817 816 815 814 813 811 810 809 808 807 806 805 805 804 804 803 803 802 798 794 795 796 796 797 798 798 799 800 801 801 801 801 799 798 799 802 805 802 802 805 803 804 806 809 815 806 793 789 783 781 782 782 785 787 787 786 788 787 785 789 793 792 791 790 788 787 787 784 785 787 788 790 791
828 828 827 826 825 824 824 823 822 821 821 820 819 819 818 817 816 815 814 813 811 810 809 808 807 806 806 804 804 804 802 805 802 794 791 792 793 795 796 797 798 799 799 800 801 800 800 799 798 798 802 806 801 800 805 803 803 802 805 810 799 789 791 784 781 782 781 784 787 787 786 788 785 784 788 791 794 790 784 780 779 780 778 780 784 785 787 789
828 827 827 826 825 824 823 823 822 821 820 819 819 818 817 817 816 815 814 813 811 810 809 808 807 806 805 804 805 803 805 811 800 790 792 792 793 794 795 796 797 798 799 800 800 800 800 799 799 800 804 807 803 802 803 798 798 801 800 799 793 789 791 785 781 784 783 786 788 789 789 787 783 783 785 788 791 784 776 773 770 770 770 772 777 781 783 786
827 827 826 825 825 824 823 822 821 820 819 819 818 818 817 816 815 814 813 812 811 810 809 808 806 806 805 804 805 803 808 810 796 790 793 792 794 794 794 796 796 798 798 800 800 800 800 799 800 804 805 806 804 802 799 792 794 803 799 792 790 787 788 783 782 785 785 787 789 789 786 783 784 785 782 783 781 772 768 768 766 766 765 766 770 776 779 781
827 826 826 825 824 823 822 822 821 819 819 818 817 816 816 815 814 813 812 812 811 809 808 807 806 805 805 805 805 804 807 803 791 792 793 792 795 794 795 796 796 798 798 799 799 799 799 799 802 803 804 805 803 798 794 791 794 801 799 792 788 785 784 782 782 785 786 788 787 785 785 785 787 785 781 777 770 766 766 765 764 764 764 765 769 773 775 776
826 825 825 824 823 823 822 821 820 819 818 817 816 815 815 814 813 812 811 811 809 808 808 806 805 805 805 805 805 806 805 798 791 793 792 792 794 794 796 796 796 797 797 799 798 798 799 800 801 799 804 804 799 797 794 794 797 799 797 791 787 785 783 781 782 785 785 786 784 784 786 786 784 783 780 772 765 764 764 763 763 763 764 766 768 770 772 772
825 824 824 823 822 822 821 820 819 818 817 816 815 814 814 813 812 811 810 810 808 808 806 805 805 804 805 804 805 808 802 793 791 792 792 793 793 794 795 795 796 796 797 798 796 798 799 800 799 798 803 802 798 798 795 800 801 794 793 790 787 786 783 781 782 782 784 783 784 786 786 784 781 782 778 765 761 762 761 762 762 763 764 765 766 767 768 769
824 823 823 822 821 821 820 819 818 816 816 815 814 813 812 812 811 810 809 808 807 806 805 805 803 803 805 803 807 809 797 790 792 791 792 792 792 794 794 794 795 795 796 796 795 797 797 798 797 796 801 800 799 798 795 799 798 791 792 791 789 789 784 782 781 779 780 781 782 785 786 781 779 784 776 760 757 759 759 761 759 761 763 762 763 763 763 764
824 823 822 821 820 819 818 818 817 815 815 813 812 811 811 810 810 809 808 807 806 805 804 803 802 803 803 803 808 805 793 790 792 790 792 792 792 793 793 794 794 794 795 794 795 794 794 795 794 796 801 800 799 797 794 794 793 791 793 793 790 789 784 781 780 778 778 780 777 781 785 782 781 782 770 755 755 756 757 759 758 759 759 758 759 758 759 759
824 822 821 820 819 818 817 816 815 814 813 812 811 810 809 809 808 807 806 806 805 804 803 802 803 802 802 804 803 797 790 791 790 790 791 790 791 792 791 793 793 794 794 793 794 792 794 794 794 799 800 798 800 799 796 793 793 793 795 798 792 787 784 777 775 774 776 778 774 780 790 786 780 774 761 754 755 756 757 757 756 756 755 755 755 755 755 754
823 822 821 820 819 817 816 815 814 813 811 810 809 808 808 807 806 806 804 804 803 803 802 801 802 801 804 803 795 790 790 790 790 790 790 790 791 791 791 792 792 793 793 793 793 792 793 793 794 797 795 797 801 798 795 792 794 794 795 798 795 794 786 771 767 768 773 777 772 782 794 783 769 763 755 752 752 755 757 756 754 753 752 752 752 752 751 750
823 822 821 819 818 817 815 814 813 811 810 809 807 806 806 805 805 804 803 802 801 801 801 801 801 801 804 799 789 788 789 788 790 789 789 790 790 791 791 791 792 792 792 792 793 792 793 793 794 795 794 797 797 795 796 795 794 796 797 796 796 803 790 765 762 764 772 778 770 782 795 777 761 755 750 748 748 753 755 754 753 751 750 749 748 748 746 745
822 821 820 819 818 816 814 813 812 810 809 807 805 804 804 803 803 802 802 801 800 800 799 799 799 800 802 795 787 788 788 788 789 788 789 790 790 791 790 791 791 791 792 792 792 792 792 793 795 797 796 794 795 800 803 799 793 793 803 802 795 800 790 767 762 761 768 777 772 782 792 776 760 752 744 742 745 749 752 751 750 749 747 746 745 743 742 741
822 821 820 818 817 815 814 812 811 809 807 805 804 803 802 801 800 799 799 798 798 798 798 799 798 799 802 795 787 787 787 787 787 787 788 789 790 790 790 791 791 791 792 791 792 792 792 794 795 796 796 796 799 803 806 807 800 792 800 804 795 794 788 772 766 761 762 774 776 777 779 768 756 748 741 740 743 747 749 748 746 745 744 742 740 738 737 737
821 820 819 817 816 814 813 811 809 807 805 804 802 800 800 799 797 797 796 796 797 796 796 797 795 798 798 790 787 786 784 785 785 786 787 788 789 789 790 791 790 791 791 791 793 792 792 794 795 796 795 797 798 801 812 818 808 795 792 795 790 786 784 777 770 764 762 770 775 775 774 764 752 746 743 741 742 745 747 746 743 741 739 737 735 733 733 733
820 819 818 817 815 814 812 810 809 807 805 803 800 799 797 796 795 795 795 795 796 797 798 796 797 804 798 785 784 782 780 783 784 785 786 787 788 788 789 789 789 791 792 793 792 792 794 793 794 798 797 798 797 801 813 811 799 792 788 789 786 780 780 776 767 764 765 769 773 775 775 765 753 749 746 742 741 743 744 742 740 737 736 733 730 729 728 727
819 818 817 816 814 813 812 810 808 806 804 801 799 798 795 793 793 793 794 795 795 795 796 793 793 798 791 779 777 778 778 781 782 784 785 786 788 788 788 788 788 790 793 795 793 791 793 794 797 803 801 796 793 794 797 791 784 784 781 782 783 781 778 768 761 761 763 770 773 771 769 760 752 749 746 741 739 739 739 738 737 734 732 728 725 724 723 721
817 817 816 815 814 813 811 810 808 806 804 801 799 797 794 794 794 793 793 793 788 784 781 781 780 780 777 773 775 777 779 780 781 782 783 784 786 788 789 788 789 792 793 794 793 788 789 799 802 798 790 784 782 781 780 778 777 777 778 779 779 781 776 762 758 757 757 767 767 761 760 754 747 744 741 739 737 736 736 735 733 730 727 723 720 718 717 716
816 816 815 814 813 812 811 809 807 806 805 802 801 799 797 797 797 796 795 789 781 778 775 774 774 773 771 771 772 773 776 779 779 779 781 782 784 788 788 788 793 796 792 789 789 787 790 798 794 782 775 774 774 772 771 773 773 774 776 778 779 779 773 761 756 755 754 763 762 754 757 753 744 741 737 735 735 734 732 731 728 725 723 718 716 714 711 711
815 815 814 813 812 811 810 808 807 806 804 803 802 801 799 800 800 800 799 791 779 774 774 772 772 771 768 768 769 770 774 777 777 777 779 780 783 785 783 785 791 790 786 787 791 794 796 793 781 771 769 771 770 767 769 771 772 775 776 780 783 777 770 762 755 755 758 764 763 756 758 753 742 738 735 731 731 728 724 723 721 719 719 716 712 709 707 709
815 813 813 812 811 811 809 808 807 805 804 804 803 802 801 801 800 800 801 797 782 772 771 770 770 769 767 767 767 769 773 773 772 772 773 776 780 781 780 783 786 783 783 787 789 794 794 782 770 768 769 770 769 768 770 773 774 776 778 784 783 773 773 771 760 758 762 762 761 759 759 754 743 737 732 726 722 720 718 716 715 714 713 711 706 705 705 707
813 813 813 811 811 810 808 807 806 805 805 804 804 803 802 801 801 800 800 793 778 767 763 762 762 763 762 763 763 766 768 764 764 766 766 770 775 778 777 777 780 782 781 778 779 781 774 764 763 765 765 767 769 768 771 778 778 773 775 780 776 768 769 768 759 757 760 759 759 762 761 749 739 737 728 720 717 715 715 714 713 710 707 705 702 701 702 704
812 812 811 811 811 809 808 807 805 807 806 804 805 803 802 802 800 800 800 792 776 764 761 758 758 756 754 758 759 760 763 760 757 759 760 763 768 773 773 771 776 780 776 772 774 772 762 758 760 763 764 764 768 770 771 777 777 772 769 768 765 763 763 761 759 763 769 769 762 764 765 739 720 727 722 713 714 713 713 713 711 709 703 700 700 698 698 701
811 811 810 811 810 808 808 806 807 808 805 805 805 803 803 802 801 801 800 795 778 765 764 761 757 754 751 755 756 758 765 762 755 756 759 762 763 766 771 770 770 773 770 768 769 762 756 756 757 762 766 765 770 773 769 771 778 777 768 761 760 761 763 764 765 771 776 773 762 763 774 750 715 717 718 710 713 712 711 712 709 707 701 697 697 694 695 699
810 810 810 810 809 810 809 807 809 807 805 807 805 804 805 801 803 801 799 800 777 756 761 762 756 754 752 755 754 759 768 762 757 760 760 762 762 762 769 768 766 767 763 767 772 758 751 759 761 762 766 768 774 773 765 767 777 775 766 763 762 761 765 766 767 774 773 770 765 760 774 767 727 711 712 706 711 713 709 710 706 703 699 694 692 689 691 694
809 809 809 809 809 810 810 809 809 807 807 807 804 806 804 802 806 800 804 809 773 744 753 758 755 755 755 759 756 757 765 759 759 764 762 763 764 763 768 765 763 764 759 767 775 759 750 761 762 760 768 771 769 765 759 762 770 768 766 766 764 764 768 767 769 775 772 774 777 762 768 774 733 703 706 704 710 714 707 705 701 697 695 691 688 685 685 690
807 808 808 809 808 808 809 809 809 808 808 806 806 807 803 805 805 798 812 808 758 736 750 753 755 758 757 763 761 759 762 760 761 765 764 765 765 765 768 764 761 764 761 762 765 757 755 763 760 759 767 766 760 762 763 761 763 766 768 766 766 768 768 770 773 776 778 779 776 765 767 772 733 698 705 711 712 712 703 698 694 690 688 685 683 681 681 686
806 807 807 808 808 808 808 807 807 807 806 806 806 805 804 806 803 806 818 792 747 742 755 754 755 757 759 766 766 762 762 762 764 767 767 766 765 767 767 764 764 766 766 764 762 758 759 765 764 760 760 758 760 769 772 767 765 767 769 768 771 772 770 775 774 775 784 773 760 757 758 766 745 707 704 709 702 700 696 694 691 686 684 680 679 678 678 682
804 805 806 806 806 806 806 806 805 805 806 806 805 805 807 804 804 812 802 765 746 752 754 755 756 754 758 761 759 761 763 763 764 766 767 768 769 771 769 767 770 774 775 773 767 761 762 767 765 758 756 759 762 768 772 773 770 768 769 769 774 775 774 780 779 782 789 764 740 740 745 759 749 712 699 697 687 686 688 688 687 683 681 677 674 674 674 678
801 802 803 803 803 804 804 804 803 804 805 805 805 807 807 807 806 798 774 751 752 754 747 751 754 753 756 754 752 757 761 760 761 762 763 768 772 771 769 766 767 773 775 772 768 763 761 760 757 757 757 757 758 765 774 776 773 770 770 773 780 781 780 784 784 783 781 756 730 731 742 747 727 699 694 691 683 682 681 680 679 676 677 674 671 670 671 675
797 798 799 799 800 801 802 802 803 804 805 805 808 809 811 816 799 770 759 758 755 748 742 744 748 750 753 754 753 755 757 757 758 761 759 763 769 767 764 761 759 762 761 761 765 764 760 752 753 760 757 751 753 760 767 767 769 771 767 771 779 781 782 783 778 771 762 745 728 730 740 735 710 691 687 683 678 677 674 674 672 670 672 669 666 668 670 674
793 794 795 794 795 797 798 800 801 803 804 805 809 813 820 819 786 756 758 760 747 742 743 744 747 750 751 752 750 749 755 755 753 759 759 761 768 766 762 760 757 757 757 761 761 761 762 751 745 751 747 744 745 744 744 747 759 765 755 757 765 763 767 768 763 756 748 738 731 734 736 723 704 687 675 671 671 669 670 670 668 667 667 666 665 668 671 674
790 790 791 790 791 793 794 797 798 801 804 803 808 818 821 809 782 766 765 756 745 743 746 747 749 754 753 750 746 742 746 749 749 756 759 759 762 759 754 752 754 755 759 766 758 752 759 744 730 737 736 737 740 733 732 740 754 757 750 755 759 749 748 752 747 740 743 747 737 730 724 704 686 674 665 669 670 667 669 668 666 668 665 664 666 667 670 674
787 786 788 786 786 788 791 792 793 798 802 802 810 817 809 790 773 767 759 750 747 745 748 752 750 756 757 749 748 744 741 745 749 754 757 756 753 748 744 742 744 747 750 756 750 746 753 740 728 738 739 737 741 735 732 736 743 751 754 753 747 738 739 748 748 738 745 756 734 715 713 699 686 674 658 664 669 666 669 667 666 667 663 662 664 665 669 672
783 783 783 780 780 783 785 787 790 795 799 801 805 801 789 776 763 757 751 747 748 746 752 759 751 751 753 747 745 746 744 745 747 752 753 751 744 737 738 734 732 737 736 738 739 735 740 737 731 739 741 741 745 742 737 734 734 745 751 744 737 740 741 746 755 750 752 759 732 710 713 709 703 685 658 661 670 667 667 665 664 664 660 660 662 663 666 669
781 781 778 773 774 778 780 784 787 791 797 800 798 786 776 768 757 753 752 749 750 750 754 758 749 742 745 744 740 739 744 746 745 750 748 743 734 723 726 729 724 726 726 729 736 731 733 739 736 740 745 744 747 747 743 739 737 739 742 738 739 748 748 747 756 756 756 758 736 715 715 708 697 682 666 667 670 664 664 663 662 662 659 661 662 661 664 668
780 780 775 768 770 774 777 782 785 790 795 798 794 781 769 761 752 751 752 750 751 753 754 752 746 741 739 739 736 734 741 742 740 746 742 736 728 713 713 720 718 719 719 724 732 729 732 740 738 743 751 748 748 749 745 742 743 744 745 744 741 743 744 743 745 743 743 748 738 726 722 700 673 666 666 664 661 660 662 661 661 662 660 661 662 661 663 666
779 779 773 767 769 772 776 781 786 791 791 787 783 773 764 760 755 751 749 750 751 750 750 748 747 747 743 741 740 736 737 737 735 740 736 728 722 712 708 710 712 716 715 717 725 726 732 737 734 743 754 748 742 740 738 734 737 744 747 747 744 741 741 741 737 730 730 738 736 733 728 694 657 654 659 655 655 657 657 658 659 660 660 661 661 660 663 664
779 777 771 768 769 771 777 785 787 788 787 781 775 770 766 763 759 754 750 752 754 749 748 749 751 754 754 754 753 745 742 741 736 735 732 725 722 718 710 706 707 712 716 722 725 726 732 733 730 739 746 739 729 723 724 721 721 730 735 734 735 735 738 743 739 725 721 727 724 726 727 689 650 649 654 652 656 657 655 658 658 658 659 659 659 659 660 661
778 775 769 768 770 770 776 785 785 785 787 781 772 768 768 765 762 759 755 754 757 754 751 752 752 755 757 759 759 755 755 755 749 743 734 725 722 719 711 704 704 707 714 722 720 715 721 726 728 730 726 722 718 715 718 718 715 720 723 721 724 727 729 734 732 721 719 721 715 718 718 681 644 649 658 654 656 658 658 659 659 659 659 657 658 658 657 658
775 772 769 769 769 769 775 781 783 785 785 777 770 767 766 765 763 760 757 756 757 755 754 754 753 753 755 755 755 756 758 759 756 751 745 736 728 721 715 711 710 709 710 716 716 712 717 724 728 728 721 716 714 713 717 720 719 720 719 717 719 720 719 719 719 716 715 716 714 716 710 679 649 652 659 654 655 658 658 658 659 659 658 658 657 655 655 656
771 769 769 770 769 769 770 772 774 778 779 775 772 769 766 764 762 759 756 755 754 753 752 750 748 749 749 749 751 752 755 757 753 748 747 744 734 726 722 721 723 720 716 720 721 718 721 723 723 729 734 733 730 725 722 722 723 722 718 714 713 713 715 715 715 717 717 714 711 708 700 679 658 654 657 656 655 657 657 656 657 658 657 658 657 655 654 654
771 768 767 767 767 765 761 759 760 765 768 770 769 766 763 760 756 754 752 749 748 749 748 745 743 744 745 747 749 749 749 752 753 748 747 747 739 730 727 727 729 728 725 726 726 723 727 730 728 734 742 742 740 731 720 718 721 721 717 713 712 712 714 716 717 720 719 711 704 700 693 681 666 659 659 657 657 658 657 655 656 657 657 656 656 655 653 651
771 766 764 765 766 762 757 753 754 755 758 762 762 758 758 756 749 745 747 746 744 744 743 741 740 743 746 747 749 751 748 747 748 748 749 750 743 733 727 726 729 729 728 729 728 727 736 743 742 743 741 736 732 723 712 712 716 717 715 711 711 711 711 714 718 719 714 708 701 695 690 686 680 673 664 656 654 656 655 653 652 652 653 653 652 652 649 648
772 763 758 760 762 760 756 754 753 751 749 752 753 749 748 749 747 744 742 740 738 738 740 741 741 743 743 743 746 749 747 744 744 744 744 744 739 732 727 726 727 725 725 727 726 729 741 746 744 744 740 732 726 718 710 709 708 708 707 706 708 708 708 712 714 709 706 705 698 690 688 687 682 675 664 653 649 651 651 650 647 645 647 648 648 648 646 646
771 762 754 755 758 756 753 751 750 750 748 746 743 739 738 741 744 745 740 734 732 734 738 738 737 736 735 735 738 740 740 740 740 740 738 736 734 731 728 726 725 723 724 727 725 728 739 741 737 738 736 728 723 718 711 706 701 696 697 697 697 699 702 706 703 695 694 696 690 686 685 679 671 667 660 651 646 647 647 644 640 639 642 642 643 645 643 642
769 763 757 756 757 753 750 749 749 749 748 746 743 739 737 735 733 733 732 731 730 730 733 733 730 728 728 728 728 730 731 731 729 728 729 728 727 727 727 723 718 717 721 725 724 725 733 735 733 734 732 725 721 717 710 705 700 694 692 692 691 692 695 695 691 686 687 688 684 680 676 669 664 659 651 646 646 647 644 638 635 637 637 636 637 640 639 637
771 769 765 764 762 757 752 752 752 750 748 747 745 740 738 737 732 728 726 727 728 726 725 725 722 719 720 720 721 721 719 718 716 713 715 718 720 723 723 717 711 713 719 722 721 722 727 726 721 726 728 721 715 713 709 705 701 696 692 692 694 694 689 684 682 682 685 684 677 674 674 669 658 648 644 645 648 647 642 636 632 633 633 631 631 634 635 632
772 772 772 773 768 759 753 750 751 752 749 746 744 739 737 737 735 732 726 722 724 724 720 719 717 716 715 714 713 710 707 707 706 702 700 703 706 709 709 705 704 708 715 718 715 716 720 717 711 717 721 712 706 707 705 701 701 701 699 698 696 689 680 675 675 676 677 676 671 671 672 663 648 642 646 648 646 644 640 634 629 629 628 626 625 628 630 628
773 772 772 774 769 760 755 752 752 751 747 742 740 737 735 732 731 732 729 720 717 718 716 713 716 720 719 714 709 707 705 703 701 699 697 694 693 694 695 696 697 699 704 710 710 709 711 710 708 711 711 703 698 699 700 703 707 704 699 693 683 674 671 670 670 667 664 663 664 663 655 644 639 643 647 644 639 636 632 627 625 625 623 620 618 620 622 620